Find OneWeb SL0687

NORAD ID: 61595 Int'l Des: 2024-188 Owner: ONEWEBE Country: UK Constellation: oneweb operational
LEOCIRCULARPOLARONEWEB_TYPE

Live Position

Loading 3D Globe...

About OneWeb SL0687

Description loading...

Upcoming Passes

Passes for default location (London). Set your location on the main map for personalized predictions.

Altitude History

Loading altitude history...

Two-Line Element Set

1 61595U 24188B 26124.11187231 .00000032 00000-0 49869-4 0 9993
2 61595 87.9170 14.6389 0001626 97.2279 262.9037 13.17647934 80093
Epoch: May 4, 2026 • Age: 12 hours

Current Status

Altitude 1223.6 km
Velocity 7.24 km/s
Sub-Earth Point -84.34°S, 129.07°E
Launch Date Oct 20, 2024
Age 1.5 years
Type internet

Technical Details

Classification Payload
Mass 148.00 kg
Dry Mass 140.00 kg
Total Mass 148.00 kg
Length 1.30 m
Diameter 1.00 m
Span 5.00 m
Shape Trapezoid+2 pan
Manufacturer ONEWUS
Bus Type ARROW
Phase Status In Orbit
Owner/State ONEWEBE/UK

Most Searched